Regional Weather Roundup
Issued by NWS

Home | Current Version | Previous Version | Text Only | Print | Product List | Glossary On
Versions: 1 2 3 4 5 6 7 8 9 10 11 12 13 14 15 16 17 18 19 20 21 22 23 24 25 26 27 28 29 30 31 32 33 34 35 36 37 38 39 40 41 42 43 44 45 46 47 48 49 50
000
ASUS43 KLMK 210410
RWRKY
KENTUCKY REGIONAL WEATHER ROUNDUP
NATIONAL WEATHER SERVICE LOUISVILLE KY
1100 PM EST FRI JAN 20 2017

NOTE "FAIR" INDICATES FEW OR NO CLOUDS BELOW 12,000 FEET
WITH NO SIGNIFICANT WEATHER AND/OR OBSTRUCTIONS TO VISIBILITY.

KYZ001>023-026-027-061>063-070>075-210500-
WESTERN AND SOUTH CENTRAL KENTUCKY

CITY           SKY/WX    TMP DP  RH WIND       PRES   REMARKS
PADUCAH        CLOUDY    58  51  78 S8        29.66S
HENDERSON      CLEAR     55  48  76 S8        29.68S
OWENSBORO      CLOUDY    54  51  90 SE5       29.71R
HOPKINSVILLE   CLOUDY    58  53  83 S8        29.71F
BOWLING GREEN  PTCLDY    60  52  74 S9        29.75R
GLASGOW        MOCLDY    57  50  77 S5        29.76R
$$

KYZ024-025-028>034-038-045-046-053-210500-
NORTH CENTRAL KENTUCKY

CITY           SKY/WX    TMP DP  RH WIND       PRES   REMARKS
LOUISVILLE/SDF CLOUDY    55  48  77 SE5       29.73S
LOUISVILLE/LOU PTCLDY    58  49  72 S3        29.74R
FORT KNOX      PTCLDY    55  50  85 S6        29.72S
$$

KYZ035>037-039>044-047>052-055>060-089>105-210500-
NORTHEAST KENTUCKY

CITY           SKY/WX    TMP DP  RH WIND       PRES   REMARKS
LEXINGTON      PTCLDY    54  46  74 SE9       29.78R
COVINGTON      CLOUDY    51  47  86 S7        29.74S
FRANKFORT      CLOUDY    55  46  71 SE7       29.75S
$$

KYZ054-064>069-076>088-106>120-210500-
SOUTHEAST KENTUCKY

CITY           SKY/WX    TMP DP  RH WIND       PRES   REMARKS
JACKSON        PTCLDY    57  46  66 S5        29.82S
LONDON         CLEAR     49  44  83 CALM      29.81S
SOMERSET       PTCLDY    50  46  87 S3        29.81S
MIDDLESBORO    PTCLDY    47  47 100 CALM      29.85S
MONTICELLO     PTCLDY    49  46  90 VRB6      29.82R
$$




USA.gov is the U.S. government's official web portal to all federal, state and local government web resources and services.